• In Hungary
  • List of Countries
  • For 7 days
  • Water Temperature
  • Satellite Maps
  • Weather Map
  • News
  • Weather Widgets
  • user-avatar
    Login

    Hourly Weather Sharapovo

    Today, 22 February, Thursday

    Time Temperature Precipitation Wind Pressure Humidity
    00:00 -15°C° 0 mm 1 mps 753 mmHg 94%
    01:00 -16°C° 0 mm 1 mps 753 mmHg 95%
    02:00 -16°C° 0 mm 1 mps 753 mmHg 95%
    03:00 -17°C° 0 mm 1 mps 753 mmHg 95%
    04:00 -17°C° 0 mm 1 mps 753 mmHg 95%
    05:00 -17°C° 0 mm 1 mps 753 mmHg 96%
    06:00 -17°C° 0 mm 1 mps 754 mmHg 96%
    07:00 -17°C° 0 mm 1 mps 754 mmHg 96%
    08:00 -17°C° 0 mm 1 mps 754 mmHg 96%
    09:00 -15°C° 0 mm 1 mps 754 mmHg 92%
    10:00 -13°C° 0 mm 1 mps 754 mmHg 88%
    11:00 -11°C° 0 mm 1 mps 754 mmHg 84%
    12:00 -10°C° 0 mm 1 mps 754 mmHg 82%
    13:00 -10°C° 0 mm 1 mps 754 mmHg 80%
    14:00 -9°C° 0 mm 1 mps 754 mmHg 78%
    15:00 -10°C° 0 mm 1 mps 754 mmHg 81%
    16:00 -10°C° 0 mm 1 mps 754 mmHg 84%
    17:00 -11°C° 0 mm 1 mps 754 mmHg 87%
    18:00 -12°C° 0 mm 1 mps 754 mmHg 89%
    19:00 -13°C° 0 mm 1 mps 754 mmHg 91%
    20:00 -14°C° 0 mm 1 mps 754 mmHg 92%
    21:00 -15°C° 0 mm 0 mps 754 mmHg 93%
    22:00 -16°C° 0 mm 0 mps 754 mmHg 94%
    23:00 -17°C° 0 mm 0 mps 754 mmHg 95%

    Tomorrow, 23 February, Friday

    Time Temperature Precipitation Wind Pressure Humidity
    00:00 -17°C° 0 mm 0 mps 754 mmHg 95%
    01:00 -17°C° 0 mm 0 mps 754 mmHg 95%
    02:00 -18°C° 0 mm 0 mps 754 mmHg 96%
    03:00 -18°C° 0 mm 0 mps 754 mmHg 96%
    04:00 -18°C° 0 mm 0 mps 754 mmHg 97%
    05:00 -19°C° 0 mm 0 mps 753 mmHg 97%
    06:00 -18°C° 0 mm 0 mps 753 mmHg 97%
    07:00 -18°C° 0 mm 0 mps 753 mmHg 97%
    08:00 -18°C° 0 mm 0 mps 753 mmHg 96%
    09:00 -16°C° 0 mm 0 mps 753 mmHg 92%
    10:00 -13°C° 0 mm 0 mps 753 mmHg 88%
    11:00 -11°C° 0 mm 0 mps 753 mmHg 84%
    12:00 -11°C° 0 mm 0 mps 753 mmHg 82%
    13:00 -10°C° 0 mm 0 mps 753 mmHg 80%
    14:00 -9°C° 0 mm 0 mps 752 mmHg 78%
    15:00 -10°C° 0 mm 0 mps 752 mmHg 81%
    16:00 -11°C° 0 mm 0 mps 752 mmHg 83%
    17:00 -12°C° 0 mm 0 mps 752 mmHg 86%
    18:00 -13°C° 0 mm 0 mps 752 mmHg 88%
    19:00 -13°C° 0 mm 0 mps 752 mmHg 89%
    20:00 -14°C° 0 mm 1 mps 752 mmHg 91%
    21:00 -15°C° 0 mm 1 mps 752 mmHg 92%
    22:00 -16°C° 0 mm 1 mps 752 mmHg 93%
    23:00 -16°C° 0 mm 1 mps 752 mmHg 94%

    Day after tomorrow, 24 February, Saturday

    Time Temperature Precipitation Wind Pressure Humidity
    00:00 -17°C° 0 mm 1 mps 752 mmHg 94%
    01:00 -17°C° 0 mm 1 mps 752 mmHg 95%
    02:00 -18°C° 0 mm 1 mps 753 mmHg 95%
    03:00 -18°C° 0 mm 1 mps 753 mmHg 96%
    04:00 -18°C° 0 mm 1 mps 753 mmHg 96%
    05:00 -20°C° 0 mm 2 mps 753 mmHg 97%
    06:00 -20°C° 0 mm 2 mps 753 mmHg 97%
    07:00 -20°C° 0 mm 2 mps 754 mmHg 96%
    08:00 -20°C° 0 mm 2 mps 754 mmHg 96%
    09:00 -18°C° 0 mm 2 mps 754 mmHg 93%
    10:00 -17°C° 0 mm 2 mps 755 mmHg 90%
    11:00 -15°C° 0 mm 2 mps 755 mmHg 87%
    12:00 -14°C° 0 mm 2 mps 755 mmHg 85%
    13:00 -13°C° 0 mm 2 mps 755 mmHg 84%
    14:00 -12°C° 0 mm 2 mps 755 mmHg 82%
    15:00 -13°C° 0 mm 2 mps 755 mmHg 84%
    16:00 -13°C° 0 mm 2 mps 755 mmHg 86%
    17:00 -14°C° 0 mm 2 mps 755 mmHg 88%
    18:00 -15°C° 0 mm 2 mps 755 mmHg 90%
    19:00 -16°C° 0 mm 2 mps 755 mmHg 92%
    20:00 -17°C° 0 mm 2 mps 755 mmHg 95%
    21:00 -18°C° 0 mm 2 mps 755 mmHg 95%
    22:00 -18°C° 0 mm 2 mps 755 mmHg 96%
    23:00 -19°C° 0 mm 2 mps 756 mmHg 97%

    25 February, Sunday

    Time Temperature Precipitation Wind Pressure Humidity
    00:00 -18°C° 0 mm 1 mps 756 mmHg 97%
    01:00 -18°C° 0 mm 1 mps 756 mmHg 98%
    02:00 -18°C° 0 mm 1 mps 756 mmHg 98%
    03:00 -19°C° 0 mm 1 mps 756 mmHg 98%
    04:00 -19°C° 0 mm 1 mps 755 mmHg 98%
    05:00 -19°C° 0 mm 1 mps 755 mmHg 98%
    06:00 -19°C° 0 mm 1 mps 755 mmHg 97%
    07:00 -21°C° 0 mm 2 mps 755 mmHg 97%
    08:00 -23°C° 0 mm 2 mps 755 mmHg 96%
    09:00 -20°C° 0 mm 2 mps 755 mmHg 93%
    10:00 -19°C° 0 mm 2 mps 755 mmHg 89%
    11:00 -18°C° 0 mm 2 mps 755 mmHg 85%
    12:00 -17°C° 0 mm 2 mps 755 mmHg 84%
    13:00 -16°C° 0 mm 2 mps 755 mmHg 83%
    14:00 -16°C° 0 mm 2 mps 755 mmHg 82%
    15:00 -16°C° 0 mm 2 mps 754 mmHg 84%
    16:00 -17°C° 0 mm 2 mps 754 mmHg 87%
    17:00 -18°C° 0 mm 2 mps 754 mmHg 90%
    18:00 -18°C° 0 mm 2 mps 754 mmHg 92%
    19:00 -19°C° 0 mm 2 mps 754 mmHg 94%
    20:00 -20°C° 0 mm 2 mps 754 mmHg 96%
    21:00 -18°C° 0 mm 1 mps 753 mmHg 96%
    22:00 -18°C° 0 mm 1 mps 753 mmHg 97%
    23:00 -19°C° 0 mm 1 mps 753 mmHg 97%

    26 February, Monday

    Time Temperature Precipitation Wind Pressure Humidity
    00:00 -19°C° 0 mm 1 mps 753 mmHg 97%
    01:00 -19°C° 0 mm 1 mps 752 mmHg 97%
    02:00 -19°C° 0 mm 1 mps 752 mmHg 98%
    03:00 -19°C° 0 mm 1 mps 752 mmHg 98%
    04:00 -19°C° 0 mm 1 mps 752 mmHg 98%
    05:00 -19°C° 0 mm 1 mps 751 mmHg 98%
    06:00 -19°C° 0 mm 1 mps 751 mmHg 98%
    07:00 -18°C° 0 mm 1 mps 751 mmHg 97%
    08:00 -18°C° 0 mm 0 mps 751 mmHg 97%
    09:00 -16°C° 0 mm 0 mps 751 mmHg 92%
    10:00 -15°C° 0 mm 0 mps 751 mmHg 88%
    11:00 -13°C° 0 mm 0 mps 751 mmHg 83%
    12:00 -12°C° 0 mm 0 mps 751 mmHg 82%
    13:00 -12°C° 0 mm 1 mps 751 mmHg 80%
    14:00 -11°C° 0 mm 1 mps 751 mmHg 78%
    15:00 -12°C° 0.1 mm 1 mps 751 mmHg 82%
    16:00 -13°C° 0.1 mm 1 mps 751 mmHg 86%
    17:00 -14°C° 0.1 mm 1 mps 751 mmHg 90%
    18:00 -14°C° 0 mm 1 mps 752 mmHg 92%
    19:00 -15°C° 0 mm 1 mps 752 mmHg 94%
    20:00 -16°C° 0 mm 1 mps 752 mmHg 96%
    21:00 -17°C° 0 mm 1 mps 752 mmHg 96%
    22:00 -19°C° 0 mm 2 mps 753 mmHg 97%
    23:00 -20°C° 0 mm 2 mps 753 mmHg 97%

    27 February, Tuesday

    Time Temperature Precipitation Wind Pressure Humidity
    00:00 -20°C° 0 mm 2 mps 753 mmHg 97%
    01:00 -20°C° 0 mm 2 mps 754 mmHg 97%
    02:00 -20°C° 0 mm 2 mps 754 mmHg 97%
    03:00 -21°C° 0 mm 2 mps 754 mmHg 97%
    04:00 -23°C° 0 mm 2 mps 755 mmHg 97%
    05:00 -23°C° 0 mm 2 mps 755 mmHg 97%
    06:00 -23°C° 0 mm 2 mps 755 mmHg 97%
    07:00 -24°C° 0 mm 2 mps 756 mmHg 96%
    08:00 -24°C° 0 mm 2 mps 756 mmHg 96%
    09:00 -21°C° 0 mm 2 mps 756 mmHg 93%
    10:00 -20°C° 0 mm 2 mps 757 mmHg 90%
    11:00 -19°C° 0 mm 2 mps 757 mmHg 87%
    12:00 -18°C° 0 mm 2 mps 757 mmHg 85%
    13:00 -17°C° 0 mm 2 mps 758 mmHg 83%
    14:00 -16°C° 0 mm 2 mps 758 mmHg 81%
    15:00 -17°C° 0 mm 2 mps 758 mmHg 83%
    16:00 -17°C° 0 mm 2 mps 758 mmHg 86%
    17:00 -18°C° 0 mm 2 mps 758 mmHg 89%
    18:00 -19°C° 0 mm 2 mps 758 mmHg 90%
    19:00 -20°C° 0 mm 2 mps 759 mmHg 92%
    20:00 -23°C° 0 mm 3 mps 759 mmHg 93%
    21:00 -24°C° 0 mm 3 mps 759 mmHg 94%
    22:00 -23°C° 0 mm 2 mps 759 mmHg 95%
    23:00 -24°C° 0 mm 2 mps 760 mmHg 95%
    Show more